Iowa City, IA

11:14 AM CST on December 12, 2019 (GMT -0600)
Iowa City Municipal

Weather History for KIOW - October, 2019

Change the Weather History Date:

Saturday, October 12, 2019

  Actual Average Record
Temperature  
Mean Temperature 46 °F 53 °F  
Max Temperature 60 °F 65 °F 86 °F (1956)
Min Temperature 32 °F 42 °F 28 °F (1959)
Degree Days  
Heating Degree Days 19 12  
Month to date heating degree days 108 122  
Since 1 July heating degree days 115 234  
Cooling Degree Days 0 0  
Month to date cooling degree days 18 10  
Year to date cooling degree days 1175 912  
Moisture  
Dew Point 27 °F    
Average Humidity 52    
Maximum Humidity 75    
Minimum Humidity 28    
Precipitation  
Precipitation 0.00 in 0.11 in 2.48 in (2011)
Month to date precipitation 1.60 1.05  
Year to date precipitation 38.57 30.59  
Sea Level Pressure  
Sea Level Pressure 29.94 in    
Wind  
Wind Speed 12 mph (SW)    
Max Wind Speed 30 mph    
Max Gust Speed 46 mph    
Visibility 10 miles    
Events      
T = Trace of Precipitation, MM = Missing Value Source: NWS Daily Summary

Daily Weather History Graph

Daily Weather History Graph

Search for Another Location

Airport or City:

Astronomy

Oct. 12, 2019 Rise Set
Actual Time 7:14 AM CDT 6:30 PM CDT
Civil Twilight 6:46 AM CDT 6:57 PM CDT
Nautical Twilight 6:14 AM CDT 7:29 PM CDT
Astronomical Twilight 5:42 AM CDT 8:02 PM CDT
Moon 6:27 PM CDT 5:50 AM CDT
Length of Visible Light 12h 11m
Length of Day
11h 15m
Waxing Gibbous, 99% of the Moon is Illuminated
Oct 12
Waxing Gibbous
Oct 13
Full
Oct 21
Last Quarter
Oct 27
New
Nov 4
First Quarter

Hourly Weather History & Observations

Time (CDT) Temp. Windchill Dew Point Humidity Pressure Visibility Wind Dir Wind Speed Gust Speed Precip Events Conditions
12:52 AM 37.0 °F 31.6 °F 26.1 °F 65% 30.09 in 10.0 mi SW 6.9 mph - N/A   Clear
1:52 AM 35.1 °F 30.1 °F 27.0 °F 72% 30.07 in 10.0 mi SSW 5.8 mph - N/A   Clear
2:52 AM 34.0 °F 28.0 °F 27.0 °F 75% 30.06 in 10.0 mi SSW 6.9 mph - N/A   Clear
3:52 AM 33.1 °F 26.1 °F 27.0 °F 78% 30.06 in 10.0 mi SSW 8.1 mph - N/A   Clear
4:52 AM 33.1 °F 26.1 °F 26.1 °F 75% 30.05 in 10.0 mi SSW 8.1 mph - N/A   Clear
5:52 AM 33.1 °F 26.1 °F 25.0 °F 72% 30.05 in 10.0 mi SW 8.1 mph - N/A   Clear
6:52 AM 33.1 °F 26.9 °F 25.0 °F 72% 30.03 in 10.0 mi SSW 6.9 mph - N/A   Clear
7:52 AM 34.0 °F 26.6 °F 25.0 °F 70% 30.03 in 10.0 mi SSW 9.2 mph - N/A   Clear
8:52 AM 37.9 °F 29.6 °F 25.0 °F 60% 30.01 in 10.0 mi SW 13.8 mph 23.0 mph N/A   Clear
9:52 AM 42.1 °F 34.5 °F 25.0 °F 51% 29.98 in 10.0 mi SW 15.0 mph 32.2 mph N/A   Clear
10:52 AM 48.9 °F - 25.0 °F 39% 29.95 in 10.0 mi SW 20.7 mph 33.4 mph N/A   Clear
11:52 AM 53.1 °F - 25.0 °F 34% 29.94 in 10.0 mi WSW 23.0 mph 40.3 mph N/A   Clear
12:52 PM 55.0 °F - 26.1 °F 33% 29.88 in 10.0 mi WSW 25.3 mph 41.4 mph N/A   Clear
1:52 PM 55.9 °F - 25.0 °F 30% 29.85 in 10.0 mi SW 23.0 mph 38.0 mph N/A   Clear
2:52 PM 59.0 °F - 26.1 °F 28% 29.84 in 10.0 mi WSW 25.3 mph 38.0 mph N/A   Clear
3:52 PM 59.0 °F - 26.1 °F 28% 29.81 in 10.0 mi WSW 19.6 mph 34.5 mph N/A   Clear
4:52 PM 59.0 °F - 26.1 °F 28% 29.81 in 10.0 mi West 20.7 mph 36.8 mph N/A   Clear
5:52 PM 55.9 °F - 27.0 °F 33% 29.81 in 10.0 mi WSW 10.4 mph - N/A   Clear
6:52 PM 53.1 °F - 27.0 °F 37% 29.81 in 10.0 mi WSW 9.2 mph - N/A   Clear
7:52 PM 48.0 °F - 30.0 °F 50% 29.84 in 10.0 mi Variable 5.8 mph - N/A   Clear
8:52 PM 42.1 °F 36.6 °F 33.1 °F 70% 29.87 in 10.0 mi North 9.2 mph - N/A   Clear
9:52 PM 42.1 °F 37.1 °F 32.0 °F 67% 29.88 in 10.0 mi NNW 8.1 mph - N/A   Clear
10:52 PM 39.0 °F 36.8 °F 30.9 °F 73% 29.88 in 10.0 mi WNW 3.5 mph - N/A   Clear
11:52 PM 39.0 °F 36.8 °F 30.9 °F 73% 29.89 in 10.0 mi SW 3.5 mph - N/A   Clear